This is the latest recevied weather packets stored in our database for station/object KC9DNQ-3. If no packets are shown the sender has not sent any weather packets the latest 10 day(s).
| Time | Temp. | Humidity | Pressure | Rain* | Wind** | Luminosity | Snow |
|---|---|---|---|---|---|---|---|
| 1778240711 | 10° C | 93% | 1010 hPa | 0.51 mm | - | 26 W/m² | - |
| 1778240410 | 10° C | 93% | 1009.9 hPa | 0.76 mm | - | 12 W/m² | - |
| 1778240110 | 10° C | 93% | 1009.9 hPa | 0.76 mm | - | 7 W/m² | - |
| 1778239810 | 10° C | 93% | 1009.8 hPa | 0.51 mm | - | 5 W/m² | - |
| 1778239511 | 9.44° C | 93% | 1009.8 hPa | 0.51 mm | - | 5 W/m² | - |
| 1778239211 | 9.44° C | 93% | 1009.8 hPa | 0.51 mm | - | 7 W/m² | - |
| 1778238910 | 9.44° C | 93% | 1009.8 hPa | 0.51 mm | - | 0 W/m² | - |
| 1778238610 | 9.44° C | 93% | 1009.8 hPa | 0.25 mm | - | 5 W/m² | - |
| 1778238310 | 9.44° C | 93% | 1009.7 hPa | 0.51 mm | - | 5 W/m² | - |
| 1778238010 | 9.44° C | 93% | 1009.7 hPa | 0.51 mm | - | 7 W/m² | - |
| 1778237710 | 9.44° C | 93% | 1009.6 hPa | 0.51 mm | - | 0 W/m² | - |
| 1778237411 | 9.44° C | 93% | 1009.8 hPa | 0.51 mm | - | 0 W/m² | - |
| 1778237111 | 9.44° C | 93% | 1010 hPa | 0.51 mm | - | 0 W/m² | - |
| 1778236510 | 8.89° C | 93% | 1009.8 hPa | 0.25 mm | - | 0 W/m² | - |
| 1778236210 | 8.89° C | 93% | 1009.8 hPa | 0.25 mm | - | 0 W/m² | - |
| 1778235910 | 8.89° C | 92% | 1009.8 hPa | 0.25 mm | - | 0 W/m² | - |
| 1778235610 | 8.89° C | 92% | 1009.8 hPa | 0.25 mm | - | 0 W/m² | - |
| 1778235010 | 8.89° C | 93% | 1010 hPa | 0.25 mm | - | 0 W/m² | - |
| 1778234710 | 8.89° C | 93% | 1010.1 hPa | 0 mm | - | 0 W/m² | - |
| 1778234410 | 8.89° C | 93% | 1010.1 hPa | 0 mm | - | 0 W/m² | - |
| 1778234110 | 8.89° C | 92% | 1009.8 hPa | 0 mm | - | 0 W/m² | - |
| 1778233811 | 8.89° C | 93% | 1009.7 hPa | 0 mm | - | 0 W/m² | - |
| 1778233511 | 8.89° C | 93% | 1009.8 hPa | 0 mm | - | 0 W/m² | - |
| 1778233211 | 8.33° C | 93% | 1009.8 hPa | 0 mm | - | 0 W/m² | - |
| 1778232910 | 8.33° C | 93% | 1010.1 hPa | 0 mm | - | 0 W/m² | - |
* Rain latest hour (hover to see other rain measurements)
** Current wind speed in m/s (hover to see current wind gust speed)